This demonstration page uses our WeatherBlox Daily Observations layout. Learn more.

Left ArrowRight Arrow

44.8408, -93.29828

Hourly Observations for July 3, 2017

Temp ( °F °C ) Dew Point ( °F °C ) Humidity (%) Winds ( mph kmh ) Pressure ( in mb ) Visibility ( mi km ) Precip ( " mm )
12:53 am 00:53 Clear 68 20 53 11.7 59 59 Calm 30.06 1018 10 16 0.00 0.00
1:53 am 01:53 Clear 68 20 54 12.2 61 61 Calm 30.06 1018 10 16 0.00 0.00
2:53 am 02:53 Clear 65 18.3 55 12.8 70 70 Calm 30.06 1018 10 16 0.00 0.00
3:53 am 03:53 Clear 64 17.8 55 12.8 73 73 VRB 3 6 30.04 1017 10 16 0.00 0.00
4:53 am 04:53 Mostly Clear 64 17.8 53 11.7 68 68 NE 3 6 30.05 1018 10 16 0.00 0.00
5:53 am 05:53 Partly Cloudy 64 17.8 51 10.6 63 63 E 5 7 30.06 1018 10 16 0.00 0.00
6:53 am 06:53 Mostly Cloudy 65 18.3 52 11.1 63 63 E 6 9 30.06 1018 10 16 0.00 0.00
7:53 am 07:53 Partly Cloudy 67 19.4 52 11.1 59 59 E 7 11 30.08 1019 10 16 0.00 0.00
8:53 am 08:53 Partly Cloudy 70 21.1 53 11.7 55 55 SE 8 13 30.09 1019 10 16 0.00 0.00
9:53 am 09:53 Mostly Sunny 74 23.3 54 12.2 50 50 E 6 9 30.10 1019 10 16 0.00 0.00
10:53 am 10:53 Mostly Sunny 75 23.9 53 11.7 46 46 E 9 15 30.09 1019 10 16 0.00 0.00
11:53 am 11:53 Mostly Sunny 77 25 53 11.7 43 43 E 9 15 30.07 1018 10 16 0.00 0.00
12:53 pm 12:53 Mostly Sunny 79 26.1 54 12.2 42 42 E 10 17 30.06 1018 10 16 0.00 0.00
1:53 pm 13:53 Mostly Sunny 79 26.1 53 11.7 41 41 SSE 9 15 30.05 1018 10 16 0.00 0.00
2:53 pm 14:53 Mostly Sunny 80 26.7 54 12.2 41 41 VRB 6 9 30.04 1017 10 16 0.00 0.00
3:53 pm 15:53 Mostly Sunny 80 26.7 53 11.7 39 39 SE 9 15 30.03 1017 10 16 0.00 0.00
4:53 pm 16:53 Mostly Sunny 81 27.2 53 11.7 38 38 SE 9 15 30.03 1017 10 16 0.00 0.00
5:53 pm 17:53 Mostly Sunny 80 26.7 54 12.2 41 41 VRB 6 9 30.02 1017 10 16 0.00 0.00
6:53 pm 18:53 Mostly Sunny 80 26.7 53 11.7 39 39 SE 8 13 30.01 1016 10 16 0.00 0.00
7:53 pm 19:53 Mostly Sunny 79 26.1 55 12.8 44 44 SE 8 13 30.01 1016 10 16 0.00 0.00
8:53 pm 20:53 Mostly Sunny 77 25 56 13.3 48 48 SE 7 11 30.01 1016 10 16 0.00 0.00
9:53 pm 21:53 Partly Cloudy 76 24.4 56 13.3 50 50 SE 8 13 30.03 1017 10 16 0.00 0.00
10:53 pm 22:53 Mostly Clear 73 22.8 57 13.9 57 57 E 7 11 30.02 1017 10 16 0.00 0.00
11:53 pm 23:53 Mostly Clear 72 22.2 57 13.9 59 59 E 6 9 30.02 1017 10 16 0.00 0.00

Powered by AerisWeather